Meteo Giornale » Osservazioni meteo Stati Uniti (USA) » Stafford Regnl

ore: 08:55 - Osservazioni Meteo Stafford Regnl
Lat. 38° 24' N Lon. 77° 27' W Alt. 65 metri s.l.m.

sereno

26 °C

Sereno

Temp. 24 Ore

23 °C

33 °C

Nord

0 Km/h

Dew point 22 °C

Umidità 78 %

Visibilità  10 Km

Il sole sorge alle ore 06:39

Il sole tramonta alle ore 19:40

Data e Ora Cielo e Fenomeni T °C DP °C Um. % Pres. hPa Vis. km Vento km/h
Oggi h: 08:55 sereno Sereno 26 22 78 1018 10 N 0
Oggi h: 08:35 sereno Sereno 26 23 83 1018 10 N 0
Oggi h: 08:15 sereno Sereno 25 22 83 1018 10 N 0
Oggi h: 07:55 sereno Sereno 25 23 88 1017 10 N 0
Oggi h: 07:35 sereno Sereno 24 22 88 1017 11 N 0
Oggi h: 06:15 foschia Foschia 23 22 94 1017 8 N 0
Oggi h: 05:55 foschia Foschia 23 21 88 1017 5 N 0
Oggi h: 04:55 sereno Sereno 23 22 94 1017 11 N 0
Oggi h: 02:15 sereno Sereno 24 22 88 1018 10 N 0
Oggi h: 01:55 sereno Sereno 24 22 88 1018 11 N 0
Oggi h: 01:35 sereno Sereno 24 22 88 1018 11 N 0
Oggi h: 01:15 sereno Sereno 24 22 88 1018 10 N 0
Oggi h: 00:55 sereno Sereno 24 22 88 1018 11 N 0
Oggi h: 00:35 sereno Sereno 24 23 94 1019 10 N 0
Oggi h: 00:15 nuvoloso Nuvoloso 24 22 88 1019 11 N 0
Ieri h: 23:55 nuvoloso Nuvoloso 24 22 88 1019 10 N 0
Ieri h: 23:35 sereno Sereno 24 22 88 1018 10 N 0
Ieri h: 23:15 sereno Sereno 24 22 88 1018 11 N 0
Ieri h: 22:55 sereno Sereno 24 22 88 1018 10 N 0
Ieri h: 22:35 sereno Sereno 25 22 83 1018 10 N 0
Ieri h: 22:15 sereno Sereno 25 22 83 1018 10 N 0
Ieri h: 21:55 nuvoloso Nuvoloso 26 23 83 1018 10 N 0
Ieri h: 21:35 coperto Coperto 27 23 78 1018 10 N 0
Ieri h: 21:15 molto_nuvoloso Molto Nuvoloso 27 22 74 1018 10 N 0
Ieri h: 20:55 sereno Sereno 27 22 74 1018 10 N 0
Ieri h: 20:35 sereno Sereno 28 22 69 1018 10 N 0
Ieri h: 16:15 sereno Sereno 31 21 55 1018 10 N/NE 7.4
Ieri h: 15:55 sereno Sereno 31 21 55 1018 10 NE 7.4
Ieri h: 15:35 sereno Sereno 31 21 55 1018 10 E/NE 7.4
Ieri h: 15:15 sereno Sereno 30 21 58 1019 10 E/NE 7.4
Ieri h: 14:55 nuvoloso Nuvoloso 30 21 58 1019 10 N 5.5
Ieri h: 14:35 nuvoloso Nuvoloso 32 21 52 1019 10 N 0
Ieri h: 14:15 nuvoloso Nuvoloso 32 21 52 1019 10 N 5.5
Ieri h: 13:55 nuvoloso Nuvoloso 33 21 49 1019 10 N 0
Ieri h: 13:35 molto_nuvoloso Molto Nuvoloso 32 21 52 1019 10 NE 9.3
Ieri h: 13:15 molto_nuvoloso Molto Nuvoloso 31 21 55 1019 10 N 5.5
Ieri h: 12:55 nuvoloso Nuvoloso 32 22 55 1019 10 N 0
Ieri h: 12:35 nuvoloso Nuvoloso 31 21 55 1020 10 N/NE 7.4
Ieri h: 12:15 nuvoloso Nuvoloso 30 22 62 1020 10 N 7.4
Ieri h: 11:55 sereno Sereno 30 21 58 1020 10 N 0
Ieri h: 11:35 sereno Sereno 30 22 62 1020 10 N 0
Ieri h: 11:15 sereno Sereno 29 21 62 1020 10 NE 7.4
Ieri h: 10:55 sereno Sereno 29 21 62 1020 10 N 9.3